To NAV CANADA Home Page Login to a new session Search on AWWS site Feedback and Comments Disclaimer Vers la page française équivalente Tips FAQ What's new on the site To the Forecasts and Observations / NOTAM section To "File a Flight Plan" website Publications and other links Update of the User's profile FIC Telephone Numbers My Weather Data Folder Route Weather Data Regional Weather Data Local Weather Data To the Forecasts and Observations / NOTAM section
Request Generated 05/01/2016 at 04:16:42 UTC . Weather information available at that time is displayed.

METAR/TAF

OLD CROW/YT    

LWIS CYOC 010400Z AUTO 01006KT 08/M01 A2963=
LWIS CYOC 010300Z AUTO 03007KT 09/M01 A2965=
LWIS CYOC 010200Z AUTO 03011KT 09/M01 A2966=

*** REMARK        : Forecast period has ended; this was the last TAF issued
*** REMARQUE : La période de prévision est échue; ceci était le dernier TAF qui a été émis
TAF AMD CYOC 302124Z 3018/0101 FCST CNCLD DUE INSUFFICIENT DATA
RMK NXT FCST WILL BE ISSUED AT 011445Z=
Your time UTC time
Weather data provided by Environment Canada and NAV CANADA